Henderson, NV

9:55 AM PDT on March 28, 2017 (GMT -0700)
Henderson

Weather History for KHND - February, 2012

Change the Weather History Date:

Monday, February 20, 2012

  Actual Average (KLAS) Record (KLAS)
Temperature  
Mean Temperature 44 °F -  
Max Temperature 56 °F 63 °F 79 °F (1995)
Min Temperature 32 °F 42 °F 23 °F (1942)
Degree Days  
Heating Degree Days 21    
Moisture  
Dew Point 10 °F    
Average Humidity 26    
Maximum Humidity 37    
Minimum Humidity 16    
Precipitation  
Precipitation 0.00 in - - ()
Sea Level Pressure  
Sea Level Pressure 30.06 in    
Wind  
Wind Speed 3 mph (SSE)    
Max Wind Speed 8 mph    
Max Gust Speed -    
Visibility 10 miles    
Events      
Averages and records for this station are not official NWS values.
T = Trace of Precipitation, MM = Missing Value Source: NWS Daily Summary

Daily Weather History Graph

Daily Weather History Graph

Search for Another Location

Airport or City:

Trip Planner

Search our weather history database for the weather conditions in past years. The results will help you decide how hot, cold, wet, or windy it might be!

Date:

Astronomy

Feb. 20, 2012 Rise Set
Actual Time 6:22 AM PST 5:26 PM PST
Civil Twilight 5:56 AM PST 5:52 PM PST
Nautical Twilight 5:26 AM PST 6:22 PM PST
Astronomical Twilight 4:56 AM PST 6:52 PM PST
Moon 5:20 AM PST (2/20) 4:35 PM PST (2/20)
Length of Visible Light 11h 56m
Length of Day
11h 04m
Waning Crescent, 1% of the Moon is Illuminated
Feb 20
Waning Crescent
Feb 21
New
Feb 29
First Quarter
Mar 8
Full
Mar 14
Last Quarter

Hourly Weather History & Observations

Time (PST) Temp. Windchill Dew Point Humidity Pressure Visibility Wind Dir Wind Speed Gust Speed Precip Events Conditions
12:56 AM 34.9 °F 30.8 °F 4.1 °F 27% 30.02 in 10.0 mi SSW 4.6 mph - N/A   Clear
1:56 AM 34.0 °F - 7.2 °F 33% 30.02 in 10.0 mi Calm Calm - N/A   Clear
2:56 AM 34.0 °F 28.0 °F 7.2 °F 33% 30.01 in 10.0 mi SSE 6.9 mph - N/A   Clear
3:56 AM 32.9 °F 28.5 °F 9.1 °F 37% 30.01 in 10.0 mi South 4.6 mph - N/A   Clear
4:56 AM 34.0 °F - 10.0 °F 37% 30.04 in 10.0 mi Calm Calm - N/A   Clear
6:56 AM 34.0 °F 28.8 °F 9.1 °F 36% 30.06 in 10.0 mi South 5.8 mph - N/A   Clear
7:56 AM 41.0 °F - 12.0 °F 31% 30.09 in 10.0 mi Calm Calm - N/A   Clear
8:56 AM 45.0 °F - 11.1 °F 25% 30.11 in 10.0 mi Calm Calm - N/A   Clear
9:56 AM 46.9 °F - 12.0 °F 24% 30.12 in 10.0 mi Calm Calm - N/A   Clear
10:56 AM 50.0 °F - 12.0 °F 22% 30.11 in 10.0 mi Calm Calm - N/A   Clear
11:56 AM 52.0 °F - 12.0 °F 20% 30.08 in 10.0 mi NNW 4.6 mph - N/A   Clear
12:56 PM 52.0 °F - 12.0 °F 20% 30.06 in 10.0 mi Variable 3.5 mph - N/A   Clear
1:56 PM 54.0 °F - 11.1 °F 18% 30.05 in 10.0 mi NE 6.9 mph - N/A   Clear
2:56 PM 55.9 °F - 11.1 °F 17% 30.03 in 10.0 mi NNE 8.1 mph - N/A   Clear
3:56 PM 56.8 °F - 11.1 °F 16% 30.03 in 10.0 mi Calm Calm - N/A   Clear
4:56 PM 54.9 °F - 10.0 °F 17% 30.03 in 10.0 mi Calm Calm - N/A   Clear
5:56 PM 50.9 °F - 11.1 °F 20% 30.05 in 10.0 mi Calm Calm - N/A   Clear
6:56 PM 48.9 °F - 13.1 °F 24% 30.07 in 10.0 mi Calm Calm - N/A   Clear
7:56 PM 43.9 °F - 9.1 °F 24% 30.07 in 10.0 mi Calm Calm - N/A   Clear
8:56 PM 43.0 °F 40.3 °F 8.1 °F 24% 30.09 in 10.0 mi SSW 4.6 mph - N/A   Clear
9:56 PM 39.9 °F 35.8 °F 9.1 °F 28% 30.11 in 10.0 mi South 5.8 mph - N/A   Clear
10:56 PM 38.8 °F 33.8 °F 10.0 °F 31% 30.10 in 10.0 mi SSE 6.9 mph - N/A   Clear
11:56 PM 38.8 °F 33.2 °F 7.2 °F 27% 30.11 in 10.0 mi South 8.1 mph - N/A   Clear